Volver al catálogo

STARLINK-1046

ActivoComunicacionesVLEO
NORAD 44751·PAYLOAD·🇺🇸 United States

Lanzado Nov 11, 2019 desde Cape Canaveral Space Force Station

Loading…

Próximos Pases (próximas 24 horas)

TLE

ActualizadoSource: CelesTrak SupGP

Época: Sep 14, 2026, 13:22 UTC

1 44751C 19074AQ  26257.55743056  .00027926  00000+0  21992-3 0  2577
2 44751  53.0431  15.6252 0002422 343.1925 233.1856 15.70767407    10

Sigue STARLINK-1046 en tiempo real con AllMySat

Download on the App Store